Time,TemperatureF,DewpointF,PressureIn,WindDirection,WindDirectionDegrees,WindSpeedMPH,WindSpeedGustMPH,Humidity,HourlyPrecipIn,Conditions,Clouds,dailyrainin,SoftwareType,DateUTC
2013-04-28 00:02:00,53.0,46.0,29.96,South,188,0.0,3.0,76,0.00,,,0.00,,2013-04-28 05:02:00,
2013-04-28 00:12:00,53.0,46.0,29.96,South,188,0.0,3.0,76,0.00,,,0.00,,2013-04-28 05:12:00,
2013-04-28 00:22:00,53.0,46.0,29.96,South,188,1.0,2.0,76,0.00,,,0.00,,2013-04-28 05:22:00,
2013-04-28 00:32:00,53.0,46.0,29.95,South,181,2.0,4.0,76,0.00,,,0.00,,2013-04-28 05:32:00,
2013-04-28 00:42:00,53.0,46.0,29.95,South,181,2.0,4.0,76,0.00,,,0.00,,2013-04-28 05:42:00,
2013-04-28 00:52:00,53.0,46.0,29.95,South,181,2.0,3.0,77,0.00,,,0.00,,2013-04-28 05:52:00,
2013-04-28 01:01:00,52.0,45.0,29.95,South,181,1.0,4.0,77,0.00,,,0.00,,2013-04-28 06:01:00,
2013-04-28 01:12:00,52.0,45.0,29.95,South,181,1.0,4.0,77,0.00,,,0.00,,2013-04-28 06:12:00,
2013-04-28 01:21:00,52.0,46.0,29.94,South,181,1.0,2.0,79,0.00,,,0.00,,2013-04-28 06:21:00,
2013-04-28 01:32:00,51.0,45.0,29.94,South,175,2.0,5.0,79,0.00,,,0.00,,2013-04-28 06:32:00,
2013-04-28 01:42:00,51.0,45.0,29.94,South,175,2.0,5.0,79,0.00,,,0.00,,2013-04-28 06:42:00,
2013-04-28 01:52:00,51.0,45.0,29.93,SSW,192,1.0,5.0,80,0.00,,,0.00,,2013-04-28 06:52:00,
2013-04-28 02:01:00,50.0,44.0,29.93,South,183,2.0,5.0,81,0.00,,,0.00,,2013-04-28 07:01:00,
2013-04-28 02:11:00,50.0,44.0,29.93,South,183,2.0,5.0,81,0.00,,,0.00,,2013-04-28 07:11:00,
2013-04-28 02:21:00,50.0,45.0,29.91,South,183,1.0,4.0,82,0.00,,,0.00,,2013-04-28 07:21:00,
2013-04-28 02:31:00,50.0,44.0,29.91,South,170,2.0,4.0,81,0.00,,,0.00,,2013-04-28 07:31:00,
2013-04-28 02:42:00,50.0,44.0,29.91,South,170,2.0,4.0,81,0.00,,,0.00,,2013-04-28 07:42:00,
2013-04-28 02:52:00,50.0,44.0,29.91,SSE,160,2.0,4.0,81,0.00,,,0.00,,2013-04-28 07:52:00,
2013-04-28 03:02:00,50.0,44.0,29.90,South,175,2.0,4.0,81,0.00,,,0.00,,2013-04-28 08:02:00,
2013-04-28 03:11:00,50.0,44.0,29.90,South,175,2.0,4.0,81,0.00,,,0.00,,2013-04-28 08:11:00,
2013-04-28 03:21:00,50.0,44.0,29.91,South,180,0.0,2.0,81,0.00,,,0.00,,2013-04-28 08:21:00,
2013-04-28 03:32:00,50.0,45.0,29.91,West,269,0.0,1.0,82,0.00,,,0.00,,2013-04-28 08:32:00,
2013-04-28 03:42:00,50.0,45.0,29.91,West,269,0.0,1.0,82,0.00,,,0.00,,2013-04-28 08:42:00,
2013-04-28 03:52:00,49.0,44.0,29.91,West,267,0.0,2.0,83,0.00,,,0.00,,2013-04-28 08:52:00,
2013-04-28 04:01:00,49.0,44.0,29.90,West,266,0.0,1.0,84,0.00,,,0.00,,2013-04-28 09:01:00,
2013-04-28 04:11:00,49.0,44.0,29.90,West,266,0.0,1.0,84,0.00,,,0.00,,2013-04-28 09:11:00,
2013-04-28 04:21:00,48.0,43.0,29.90,West,267,0.0,0.0,84,0.00,,,0.00,,2013-04-28 09:21:00,
2013-04-28 04:33:00,47.0,43.0,29.90,West,266,0.0,0.0,86,0.00,,,0.00,,2013-04-28 09:33:00,
2013-04-28 04:42:00,47.0,43.0,29.90,West,266,0.0,0.0,86,0.00,,,0.00,,2013-04-28 09:42:00,
2013-04-28 04:53:00,46.0,43.0,29.90,West,266,0.0,1.0,88,0.00,,,0.00,,2013-04-28 09:53:00,
2013-04-28 05:03:00,46.0,43.0,29.90,West,266,0.0,1.0,88,0.00,,,0.00,,2013-04-28 10:03:00,
2013-04-28 05:12:00,46.0,43.0,29.90,West,266,0.0,1.0,88,0.00,,,0.00,,2013-04-28 10:12:00,
2013-04-28 05:22:00,45.0,42.0,29.90,West,266,0.0,0.0,90,0.00,,,0.00,,2013-04-28 10:22:00,
2013-04-28 05:32:00,46.0,44.0,29.90,West,267,0.0,0.0,91,0.00,,,0.00,,2013-04-28 10:32:00,
2013-04-28 05:42:00,46.0,44.0,29.90,West,267,0.0,0.0,91,0.00,,,0.00,,2013-04-28 10:42:00,
2013-04-28 05:53:00,46.0,44.0,29.90,West,267,0.0,1.0,91,0.00,,,0.00,,2013-04-28 10:53:00,
2013-04-28 06:02:00,45.0,42.0,29.91,West,267,0.0,0.0,90,0.00,,,0.00,,2013-04-28 11:02:00,
2013-04-28 06:11:00,45.0,42.0,29.91,West,267,0.0,0.0,90,0.00,,,0.00,,2013-04-28 11:11:00,
2013-04-28 06:22:00,45.0,43.0,29.91,West,267,0.0,0.0,92,0.00,,,0.00,,2013-04-28 11:22:00,
2013-04-28 06:32:00,44.0,42.0,29.91,West,267,0.0,0.0,92,0.00,,,0.00,,2013-04-28 11:32:00,
2013-04-28 06:42:00,44.0,42.0,29.91,West,267,0.0,0.0,92,0.00,,,0.00,,2013-04-28 11:42:00,
2013-04-28 06:52:00,45.0,43.0,29.91,West,267,0.0,0.0,94,0.00,,,0.00,,2013-04-28 11:52:00,
2013-04-28 07:02:00,46.0,44.0,29.91,West,266,0.0,0.0,92,0.00,,,0.00,,2013-04-28 12:02:00,
2013-04-28 07:12:00,46.0,44.0,29.91,West,266,0.0,0.0,92,0.00,,,0.00,,2013-04-28 12:12:00,
2013-04-28 07:21:00,46.0,44.0,29.90,West,267,0.0,0.0,92,0.00,,,0.00,,2013-04-28 12:21:00,
2013-04-28 07:32:00,48.0,45.0,29.90,South,171,0.0,2.0,90,0.00,,,0.00,,2013-04-28 12:32:00,
2013-04-28 07:42:00,48.0,45.0,29.90,South,171,0.0,2.0,90,0.00,,,0.00,,2013-04-28 12:42:00,
2013-04-28 07:52:00,49.0,46.0,29.91,South,171,0.0,1.0,89,0.00,,,0.00,,2013-04-28 12:52:00,
2013-04-28 08:02:00,50.0,46.0,29.91,SSE,160,1.0,5.0,86,0.00,,,0.00,,2013-04-28 13:02:00,
2013-04-28 08:11:00,50.0,46.0,29.91,SSE,160,1.0,5.0,86,0.00,,,0.00,,2013-04-28 13:11:00,
2013-04-28 08:21:00,52.0,47.0,29.91,SSE,165,1.0,5.0,83,0.00,,,0.00,,2013-04-28 13:21:00,
2013-04-28 08:31:00,54.0,48.0,29.91,South,175,1.0,3.0,81,0.00,,,0.00,,2013-04-28 13:31:00,
2013-04-28 08:42:00,54.0,48.0,29.91,South,175,1.0,3.0,81,0.00,,,0.00,,2013-04-28 13:42:00,
2013-04-28 08:52:00,55.0,48.0,29.90,South,177,1.0,3.0,77,0.00,,,0.00,,2013-04-28 13:52:00,
2013-04-28 09:01:00,57.0,48.0,29.90,South,184,2.0,5.0,72,0.00,,,0.00,,2013-04-28 14:01:00,
2013-04-28 09:11:00,57.0,48.0,29.90,South,184,2.0,5.0,72,0.00,,,0.00,,2013-04-28 14:11:00,
2013-04-28 09:22:00,58.0,49.0,29.89,South,178,2.0,6.0,71,0.00,,,0.00,,2013-04-28 14:22:00,
2013-04-28 09:32:00,59.0,48.0,29.89,SSE,159,2.0,5.0,68,0.00,,,0.00,,2013-04-28 14:32:00,
2013-04-28 09:42:00,59.0,48.0,29.89,SSE,159,2.0,5.0,68,0.00,,,0.00,,2013-04-28 14:42:00,
2013-04-28 09:52:00,60.0,47.0,29.88,South,184,3.0,8.0,63,0.00,,,0.00,,2013-04-28 14:52:00,
2013-04-28 10:01:00,60.0,47.0,29.88,SSW,197,5.0,10.0,61,0.00,,,0.00,,2013-04-28 15:01:00,
2013-04-28 10:12:00,60.0,47.0,29.88,SSW,197,5.0,10.0,61,0.00,,,0.00,,2013-04-28 15:12:00,
2013-04-28 10:21:00,61.0,47.0,29.88,SSW,198,5.0,7.0,61,0.00,,,0.00,,2013-04-28 15:21:00,
2013-04-28 10:32:00,62.0,48.0,29.87,SSE,150,3.0,6.0,60,0.00,,,0.00,,2013-04-28 15:32:00,
2013-04-28 10:42:00,62.0,48.0,29.87,SSE,150,3.0,6.0,60,0.00,,,0.00,,2013-04-28 15:42:00,
2013-04-28 10:53:00,63.0,48.0,29.87,South,188,3.0,7.0,59,0.00,,,0.00,,2013-04-28 15:53:00,
2013-04-28 11:03:00,63.0,47.0,29.86,South,180,5.0,8.0,56,0.00,,,0.00,,2013-04-28 16:03:00,
2013-04-28 11:13:00,63.0,47.0,29.86,South,180,5.0,8.0,56,0.00,,,0.00,,2013-04-28 16:13:00,
2013-04-28 11:23:00,64.0,49.0,29.86,SE,144,3.0,9.0,58,0.00,,,0.00,,2013-04-28 16:23:00,
2013-04-28 11:33:00,64.0,47.0,29.86,South,174,7.0,10.0,54,0.00,,,0.00,,2013-04-28 16:33:00,
2013-04-28 11:42:00,64.0,47.0,29.86,South,174,7.0,10.0,54,0.00,,,0.00,,2013-04-28 16:42:00,
2013-04-28 11:52:00,65.0,48.0,29.85,South,182,5.0,13.0,55,0.00,,,0.00,,2013-04-28 16:52:00,
2013-04-28 12:02:00,65.0,47.0,29.85,SSE,164,4.0,11.0,53,0.00,,,0.00,,2013-04-28 17:02:00,
2013-04-28 12:12:00,65.0,47.0,29.85,SSE,164,4.0,11.0,53,0.00,,,0.00,,2013-04-28 17:12:00,
2013-04-28 12:22:00,65.0,48.0,29.84,SE,136,4.0,12.0,54,0.00,,,0.00,,2013-04-28 17:22:00,
2013-04-28 12:32:00,66.0,48.0,29.83,South,182,6.0,10.0,53,0.00,,,0.00,,2013-04-28 17:32:00,
2013-04-28 12:42:00,66.0,48.0,29.83,South,182,6.0,10.0,53,0.00,,,0.00,,2013-04-28 17:42:00,
2013-04-28 12:52:00,66.0,48.0,29.83,South,171,4.0,10.0,52,0.00,,,0.00,,2013-04-28 17:52:00,
2013-04-28 13:02:00,67.0,47.0,29.82,SSW,196,5.0,10.0,48,0.00,,,0.00,,2013-04-28 18:02:00,
2013-04-28 13:12:00,67.0,47.0,29.82,SSW,196,5.0,10.0,48,0.00,,,0.00,,2013-04-28 18:12:00,
2013-04-28 13:22:00,67.0,48.0,29.82,South,188,4.0,13.0,50,0.00,,,0.00,,2013-04-28 18:22:00,
2013-04-28 13:32:00,68.0,47.0,29.81,SSW,210,4.0,15.0,47,0.00,,,0.00,,2013-04-28 18:32:00,
2013-04-28 13:42:00,68.0,47.0,29.81,SSW,210,4.0,15.0,47,0.00,,,0.00,,2013-04-28 18:42:00,
2013-04-28 13:52:00,68.0,49.0,29.81,SE,139,6.0,12.0,50,0.00,,,0.00,,2013-04-28 18:52:00,
2013-04-28 14:02:00,69.0,48.0,29.80,South,179,4.0,8.0,47,0.00,,,0.00,,2013-04-28 19:02:00,
2013-04-28 14:11:00,69.0,48.0,29.80,South,179,4.0,8.0,47,0.00,,,0.00,,2013-04-28 19:11:00,
2013-04-28 14:21:00,69.0,47.0,29.80,SE,146,4.0,9.0,45,0.00,,,0.00,,2013-04-28 19:21:00,
2013-04-28 14:31:00,70.0,48.0,29.79,SSE,168,4.0,9.0,45,0.00,,,0.00,,2013-04-28 19:31:00,
2013-04-28 14:42:00,70.0,48.0,29.79,SSE,168,4.0,9.0,45,0.00,,,0.00,,2013-04-28 19:42:00,
2013-04-28 14:52:00,70.0,46.0,29.79,SSW,202,5.0,15.0,43,0.00,,,0.00,,2013-04-28 19:52:00,
2013-04-28 15:02:00,70.0,46.0,29.78,SSE,148,5.0,12.0,43,0.00,,,0.00,,2013-04-28 20:02:00,
2013-04-28 15:11:00,70.0,46.0,29.78,SSE,148,5.0,12.0,43,0.00,,,0.00,,2013-04-28 20:11:00,
2013-04-28 15:22:00,71.0,47.0,29.77,SSE,153,6.0,16.0,42,0.00,,,0.00,,2013-04-28 20:22:00,
2013-04-28 15:32:00,70.0,46.0,29.76,SSE,149,4.0,10.0,43,0.00,,,0.00,,2013-04-28 20:32:00,
2013-04-28 15:42:00,70.0,46.0,29.76,SSE,149,4.0,10.0,43,0.00,,,0.00,,2013-04-28 20:42:00,
2013-04-28 15:52:00,70.0,46.0,29.76,South,184,5.0,10.0,43,0.00,,,0.00,,2013-04-28 20:52:00,
2013-04-28 16:01:00,72.0,46.0,29.76,South,187,5.0,9.0,39,0.00,,,0.00,,2013-04-28 21:01:00,
2013-04-28 16:11:00,72.0,46.0,29.76,South,187,5.0,9.0,39,0.00,,,0.00,,2013-04-28 21:11:00,
2013-04-28 16:22:00,72.0,46.0,29.75,South,177,4.0,10.0,39,0.00,,,0.00,,2013-04-28 21:22:00,
2013-04-28 16:32:00,72.0,44.0,29.75,South,190,4.0,8.0,37,0.00,,,0.00,,2013-04-28 21:32:00,
2013-04-28 16:42:00,72.0,44.0,29.75,South,190,4.0,8.0,37,0.00,,,0.00,,2013-04-28 21:42:00,
2013-04-28 16:53:00,72.0,48.0,29.74,SSE,159,6.0,14.0,42,0.00,,,0.00,,2013-04-28 21:53:00,
2013-04-28 17:03:00,72.0,46.0,29.73,SSW,192,5.0,12.0,39,0.00,,,0.00,,2013-04-28 22:03:00,
2013-04-28 17:12:00,72.0,46.0,29.73,SSW,192,5.0,12.0,39,0.00,,,0.00,,2013-04-28 22:12:00,
2013-04-28 17:22:00,72.0,44.0,29.73,South,174,7.0,12.0,36,0.00,,,0.00,,2013-04-28 22:22:00,
2013-04-28 17:33:00,72.0,44.0,29.73,SSW,202,4.0,9.0,37,0.00,,,0.00,,2013-04-28 22:33:00,
2013-04-28 17:42:00,72.0,44.0,29.73,SSW,202,4.0,9.0,37,0.00,,,0.00,,2013-04-28 22:42:00,
2013-04-28 17:52:00,72.0,46.0,29.73,SSW,203,6.0,9.0,39,0.00,,,0.00,,2013-04-28 22:52:00,
2013-04-28 18:02:00,72.0,46.0,29.73,SSE,161,4.0,13.0,40,0.00,,,0.00,,2013-04-28 23:02:00,
2013-04-28 18:12:00,72.0,46.0,29.73,SSE,161,4.0,13.0,40,0.00,,,0.00,,2013-04-28 23:12:00,
2013-04-28 18:22:00,72.0,46.0,29.73,SSW,206,4.0,9.0,40,0.00,,,0.00,,2013-04-28 23:22:00,
2013-04-28 18:32:00,71.0,45.0,29.73,SSW,211,5.0,8.0,40,0.00,,,0.00,,2013-04-28 23:32:00,
2013-04-28 18:42:00,71.0,45.0,29.73,SSW,211,5.0,8.0,40,0.00,,,0.00,,2013-04-28 23:42:00,
2013-04-28 18:52:00,71.0,44.0,29.72,SSW,202,4.0,7.0,38,0.00,,,0.00,,2013-04-28 23:52:00,
2013-04-28 19:01:00,71.0,45.0,29.72,SSW,209,4.0,7.0,39,0.00,,,0.00,,2013-04-29 00:01:00,
2013-04-28 19:11:00,71.0,45.0,29.72,SSW,209,4.0,7.0,39,0.00,,,0.00,,2013-04-29 00:11:00,
2013-04-28 19:22:00,70.0,46.0,29.72,South,188,2.0,8.0,42,0.00,,,0.00,,2013-04-29 00:22:00,
2013-04-28 19:32:00,69.0,46.0,29.72,South,178,2.0,7.0,43,0.00,,,0.00,,2013-04-29 00:32:00,
2013-04-28 19:41:00,69.0,46.0,29.72,South,178,2.0,7.0,43,0.00,,,0.00,,2013-04-29 00:41:00,
2013-04-28 19:52:00,67.0,46.0,29.71,SSE,166,2.0,5.0,46,0.00,,,0.00,,2013-04-29 00:52:00,
2013-04-28 20:01:00,66.0,45.0,29.71,South,173,2.0,7.0,46,0.00,,,0.00,,2013-04-29 01:01:00,
2013-04-28 20:12:00,66.0,46.0,29.71,South,180,1.0,4.0,48,0.00,,,0.00,,2013-04-29 01:12:00,
2013-04-28 20:21:00,66.0,46.0,29.71,South,180,1.0,4.0,48,0.00,,,0.00,,2013-04-29 01:21:00,
2013-04-28 20:32:00,65.0,45.0,29.71,SSW,193,1.0,3.0,48,0.00,,,0.00,,2013-04-29 01:32:00,
2013-04-28 20:42:00,65.0,45.0,29.71,SSW,193,1.0,3.0,48,0.00,,,0.00,,2013-04-29 01:42:00,
2013-04-28 20:52:00,64.0,45.0,29.72,SSW,193,0.0,1.0,50,0.00,,,0.00,,2013-04-29 01:52:00,
2013-04-28 21:02:00,63.0,44.0,29.73,South,186,1.0,3.0,50,0.00,,,0.00,,2013-04-29 02:02:00,
2013-04-28 21:11:00,63.0,44.0,29.73,South,186,1.0,3.0,50,0.00,,,0.00,,2013-04-29 02:11:00,
2013-04-28 21:21:00,64.0,45.0,29.74,South,186,0.0,3.0,50,0.00,,,0.00,,2013-04-29 02:21:00,
2013-04-28 21:32:00,64.0,45.0,29.74,South,176,1.0,3.0,50,0.00,,,0.00,,2013-04-29 02:32:00,
2013-04-28 21:41:00,64.0,45.0,29.74,South,176,1.0,3.0,50,0.00,,,0.00,,2013-04-29 02:41:00,
2013-04-28 21:52:00,62.0,45.0,29.74,South,175,0.0,2.0,53,0.00,,,0.00,,2013-04-29 02:52:00,
2013-04-28 22:01:00,61.0,44.0,29.74,South,175,0.0,1.0,54,0.00,,,0.00,,2013-04-29 03:01:00,
2013-04-28 22:12:00,61.0,44.0,29.74,South,175,0.0,1.0,54,0.00,,,0.00,,2013-04-29 03:12:00,
2013-04-28 22:21:00,61.0,45.0,29.74,South,175,0.0,2.0,55,0.00,,,0.00,,2013-04-29 03:21:00,
2013-04-28 22:33:00,60.0,45.0,29.73,South,175,0.0,1.0,57,0.00,,,0.00,,2013-04-29 03:33:00,
2013-04-28 22:42:00,60.0,45.0,29.73,South,175,0.0,1.0,57,0.00,,,0.00,,2013-04-29 03:42:00,
2013-04-28 22:53:00,61.0,46.0,29.73,South,173,0.0,2.0,57,0.00,,,0.00,,2013-04-29 03:53:00,
2013-04-28 23:03:00,60.0,45.0,29.73,South,174,2.0,4.0,57,0.00,,,0.00,,2013-04-29 04:03:00,
2013-04-28 23:13:00,60.0,45.0,29.73,South,174,2.0,4.0,57,0.00,,,0.00,,2013-04-29 04:13:00,
2013-04-28 23:23:00,61.0,46.0,29.73,South,179,1.0,4.0,58,0.00,,,0.00,,2013-04-29 04:23:00,
2013-04-28 23:33:00,61.0,46.0,29.73,South,181,0.0,3.0,58,0.00,,,0.00,,2013-04-29 04:33:00,
2013-04-28 23:43:00,61.0,46.0,29.73,South,181,0.0,3.0,58,0.00,,,0.00,,2013-04-29 04:43:00,
2013-04-28 23:52:00,60.0,46.0,29.73,South,181,0.0,1.0,60,0.00,,,0.00,,2013-04-29 04:52:00,